Time,TemperatureF,DewpointF,PressureIn,WindDirection,WindDirectionDegrees,WindSpeedMPH,WindSpeedGustMPH,Humidity,HourlyPrecipIn,Conditions,Clouds,dailyrainin,SoftwareType,DateUTC
2013-05-06 00:00:00,50.1,48.2,30.06,SE,134,0.0,9.0,93,0.00,,,0.00,Wunderground v.1.15,2013-05-06 05:00:00,
2013-05-06 00:05:00,49.9,48.0,30.06,SE,134,0.0,9.0,93,0.00,,,0.00,Wunderground v.1.15,2013-05-06 05:05:00,
2013-05-06 00:15:00,49.2,47.3,30.06,ESE,120,0.0,1.0,93,0.00,,,0.00,Wunderground v.1.15,2013-05-06 05:15:00,
2013-05-06 00:20:00,49.0,47.3,30.06,ESE,120,0.0,1.0,94,0.00,,,0.00,Wunderground v.1.15,2013-05-06 05:20:00,
2013-05-06 00:25:00,49.0,47.3,30.06,ESE,120,0.0,1.0,94,0.00,,,0.00,Wunderground v.1.15,2013-05-06 05:25:00,
2013-05-06 00:30:00,49.1,47.7,30.06,ESE,120,0.0,0.0,95,0.00,,,0.00,Wunderground v.1.15,2013-05-06 05:30:00,
2013-05-06 00:35:00,49.1,47.7,30.06,ESE,120,0.0,0.0,95,0.00,,,0.00,Wunderground v.1.15,2013-05-06 05:35:00,
2013-05-06 00:45:00,49.1,47.7,30.05,SE,135,0.0,1.0,95,0.00,,,0.00,Wunderground v.1.15,2013-05-06 05:45:00,
2013-05-06 00:50:00,49.1,48.0,30.05,SE,135,0.0,0.0,96,0.00,,,0.00,Wunderground v.1.15,2013-05-06 05:50:00,
2013-05-06 00:55:00,48.9,47.5,30.06,SE,135,0.0,0.0,95,0.00,,,0.00,Wunderground v.1.15,2013-05-06 05:55:00,
2013-05-06 01:00:00,48.9,47.5,30.06,SE,135,0.0,0.0,95,0.00,,,0.00,Wunderground v.1.15,2013-05-06 06:00:00,
2013-05-06 01:05:00,48.9,47.5,30.05,SE,135,0.0,1.0,95,0.00,,,0.00,Wunderground v.1.15,2013-05-06 06:05:00,
2013-05-06 01:15:00,49.0,47.1,30.05,SW,217,0.0,1.0,93,0.00,,,0.00,Wunderground v.1.15,2013-05-06 06:15:00,
2013-05-06 01:20:00,48.8,46.6,30.05,SW,216,0.0,1.0,92,0.00,,,0.00,Wunderground v.1.15,2013-05-06 06:20:00,
2013-05-06 01:25:00,48.8,46.9,30.05,SW,216,0.0,1.0,93,0.00,,,0.00,Wunderground v.1.15,2013-05-06 06:25:00,
2013-05-06 01:30:00,48.8,46.6,30.05,West,276,0.0,1.0,92,0.00,,,0.00,Wunderground v.1.15,2013-05-06 06:30:00,
2013-05-06 01:35:00,48.7,46.5,30.05,WNW,297,1.0,2.0,92,0.00,,,0.00,Wunderground v.1.15,2013-05-06 06:35:00,
2013-05-06 01:40:00,48.6,46.4,30.05,West,277,1.0,1.0,92,0.00,,,0.00,Wunderground v.1.15,2013-05-06 06:40:00,
2013-05-06 01:45:00,48.8,46.3,30.05,West,269,1.0,1.0,91,0.00,,,0.00,Wunderground v.1.15,2013-05-06 06:45:00,
2013-05-06 01:50:00,48.9,46.4,30.04,West,269,0.0,1.0,91,0.00,,,0.00,Wunderground v.1.15,2013-05-06 06:50:00,
2013-05-06 01:55:00,49.2,46.4,30.04,WSW,242,1.0,2.0,90,0.00,,,0.00,Wunderground v.1.15,2013-05-06 06:55:00,
2013-05-06 02:00:00,49.5,46.4,30.04,WSW,245,1.0,1.0,89,0.00,,,0.00,Wunderground v.1.15,2013-05-06 07:00:00,
2013-05-06 02:10:00,49.8,46.4,30.03,WSW,249,1.0,1.0,88,0.00,,,0.00,Wunderground v.1.15,2013-05-06 07:10:00,
2013-05-06 02:15:00,49.9,46.2,30.03,WSW,251,0.0,1.0,87,0.00,,,0.00,Wunderground v.1.15,2013-05-06 07:15:00,
2013-05-06 02:20:00,49.9,46.2,30.03,WSW,250,0.0,1.0,87,0.00,,,0.00,Wunderground v.1.15,2013-05-06 07:20:00,
2013-05-06 02:25:00,49.7,46.0,30.03,WSW,250,0.0,1.0,87,0.00,,,0.00,Wunderground v.1.15,2013-05-06 07:25:00,
2013-05-06 02:30:00,49.5,46.1,30.03,WSW,251,0.0,1.0,88,0.00,,,0.00,Wunderground v.1.15,2013-05-06 07:30:00,
2013-05-06 02:35:00,49.4,46.3,30.03,WSW,251,0.0,1.0,89,0.00,,,0.00,Wunderground v.1.15,2013-05-06 07:35:00,
2013-05-06 02:40:00,49.5,46.1,30.03,WSW,251,0.0,1.0,88,0.00,,,0.00,Wunderground v.1.15,2013-05-06 07:40:00,
2013-05-06 02:50:00,49.7,46.6,30.03,WSW,251,0.0,1.0,89,0.00,,,0.00,Wunderground v.1.15,2013-05-06 07:50:00,
2013-05-06 02:55:00,49.6,46.5,30.03,WSW,250,0.0,1.0,89,0.00,,,0.00,Wunderground v.1.15,2013-05-06 07:55:00,
2013-05-06 03:00:00,49.5,46.7,30.03,WSW,250,0.0,1.0,90,0.00,,,0.00,Wunderground v.1.15,2013-05-06 08:00:00,
2013-05-06 03:05:00,49.4,47.2,30.03,WSW,250,0.0,1.0,92,0.00,,,0.00,Wunderground v.1.15,2013-05-06 08:05:00,
2013-05-06 03:10:00,48.9,46.7,30.03,WSW,250,0.0,1.0,92,0.00,,,0.00,Wunderground v.1.15,2013-05-06 08:10:00,
2013-05-06 03:15:00,48.5,46.6,30.03,WSW,250,0.0,1.0,93,0.00,,,0.00,Wunderground v.1.15,2013-05-06 08:15:00,
2013-05-06 03:25:00,48.4,47.0,30.03,WSW,250,0.0,1.0,95,0.00,,,0.00,Wunderground v.1.15,2013-05-06 08:25:00,
2013-05-06 03:30:00,48.1,46.5,30.03,WSW,250,0.0,1.0,94,0.00,,,0.00,Wunderground v.1.15,2013-05-06 08:30:00,
2013-05-06 03:35:00,47.9,46.5,30.03,WSW,250,0.0,1.0,95,0.00,,,0.00,Wunderground v.1.15,2013-05-06 08:35:00,
2013-05-06 03:40:00,47.7,46.3,30.03,WSW,250,0.0,1.0,95,0.00,,,0.00,Wunderground v.1.15,2013-05-06 08:40:00,
2013-05-06 03:45:00,47.7,46.6,30.03,WSW,250,0.0,1.0,96,0.00,,,0.00,Wunderground v.1.15,2013-05-06 08:45:00,
2013-05-06 03:55:00,47.7,46.6,30.03,WSW,250,0.0,1.0,96,0.00,,,0.00,Wunderground v.1.15,2013-05-06 08:55:00,
2013-05-06 04:00:00,47.8,46.7,30.03,WSW,250,0.0,1.0,96,0.00,,,0.00,Wunderground v.1.15,2013-05-06 09:00:00,
2013-05-06 04:05:00,47.7,46.6,30.03,WSW,250,0.0,1.0,96,0.00,,,0.00,Wunderground v.1.15,2013-05-06 09:05:00,
2013-05-06 04:10:00,47.6,46.5,30.03,WSW,250,0.0,1.0,96,0.00,,,0.00,Wunderground v.1.15,2013-05-06 09:10:00,
2013-05-06 04:15:00,47.5,46.4,30.03,WSW,250,0.0,1.0,96,0.00,,,0.00,Wunderground v.1.15,2013-05-06 09:15:00,
2013-05-06 04:20:00,47.3,46.2,30.03,WSW,250,0.0,1.0,96,0.00,,,0.00,Wunderground v.1.15,2013-05-06 09:20:00,
2013-05-06 04:30:00,47.7,46.9,30.03,WSW,250,0.0,1.0,97,0.00,,,0.00,Wunderground v.1.15,2013-05-06 09:30:00,
2013-05-06 04:35:00,47.6,46.5,30.03,WSW,250,0.0,1.0,96,0.00,,,0.00,Wunderground v.1.15,2013-05-06 09:35:00,
2013-05-06 04:40:00,47.4,46.3,30.03,WSW,250,0.0,1.0,96,0.00,,,0.00,Wunderground v.1.15,2013-05-06 09:40:00,
2013-05-06 04:45:00,47.3,46.2,30.03,WSW,250,0.0,1.0,96,0.00,,,0.00,Wunderground v.1.15,2013-05-06 09:45:00,
2013-05-06 04:50:00,47.6,46.8,30.03,WSW,250,0.0,1.0,97,0.00,,,0.00,Wunderground v.1.15,2013-05-06 09:50:00,
2013-05-06 05:00:00,47.7,46.6,30.03,WSW,250,0.0,1.0,96,0.00,,,0.00,Wunderground v.1.15,2013-05-06 10:00:00,
2013-05-06 05:05:00,47.7,46.6,30.03,WSW,250,0.0,1.0,96,0.00,,,0.00,Wunderground v.1.15,2013-05-06 10:05:00,
2013-05-06 05:10:00,47.9,46.8,30.03,WNW,285,0.0,1.0,96,0.00,,,0.00,Wunderground v.1.15,2013-05-06 10:10:00,
2013-05-06 05:15:00,48.4,47.0,30.03,WNW,288,0.0,1.0,95,0.00,,,0.00,Wunderground v.1.15,2013-05-06 10:15:00,
2013-05-06 05:20:00,49.0,47.3,30.03,West,271,1.0,1.0,94,0.00,,,0.00,Wunderground v.1.15,2013-05-06 10:20:00,
2013-05-06 05:25:00,49.3,47.4,30.03,WNW,283,1.0,1.0,93,0.00,,,0.00,Wunderground v.1.15,2013-05-06 10:25:00,
2013-05-06 05:30:00,49.4,47.2,30.03,West,264,0.0,1.0,92,0.00,,,0.00,Wunderground v.1.15,2013-05-06 10:30:00,
2013-05-06 05:35:00,49.4,47.2,30.03,West,269,0.0,1.0,92,0.00,,,0.00,Wunderground v.1.15,2013-05-06 10:35:00,
2013-05-06 05:40:00,49.5,47.3,30.03,West,267,0.0,1.0,92,0.00,,,0.00,Wunderground v.1.15,2013-05-06 10:40:00,
2013-05-06 05:45:00,49.5,47.3,30.03,West,266,0.0,1.0,92,0.00,,,0.00,Wunderground v.1.15,2013-05-06 10:45:00,
2013-05-06 05:55:00,49.5,47.3,30.04,West,259,0.0,1.0,92,0.00,,,0.00,Wunderground v.1.15,2013-05-06 10:55:00,
2013-05-06 06:00:00,49.2,47.3,30.04,West,274,0.0,1.0,93,0.00,,,0.00,Wunderground v.1.15,2013-05-06 11:00:00,
2013-05-06 06:05:00,49.1,47.2,30.04,West,274,0.0,1.0,93,0.00,,,0.00,Wunderground v.1.15,2013-05-06 11:05:00,
2013-05-06 06:10:00,49.1,47.4,30.04,West,280,0.0,1.0,94,0.00,,,0.00,Wunderground v.1.15,2013-05-06 11:10:00,
2013-05-06 06:15:00,49.2,47.5,30.05,WNW,298,1.0,1.0,94,0.00,,,0.00,Wunderground v.1.15,2013-05-06 11:15:00,
2013-05-06 06:20:00,49.3,47.6,30.05,NW,316,1.0,1.0,94,0.00,,,0.00,Wunderground v.1.15,2013-05-06 11:20:00,
2013-05-06 06:25:00,49.4,47.7,30.05,NW,323,1.0,2.0,94,0.00,,,0.00,Wunderground v.1.15,2013-05-06 11:25:00,
2013-05-06 06:35:00,49.6,47.9,30.05,NW,316,1.0,2.0,94,0.00,,,0.00,Wunderground v.1.15,2013-05-06 11:35:00,
2013-05-06 06:40:00,49.7,48.0,30.05,NW,316,1.0,2.0,94,0.00,,,0.00,Wunderground v.1.15,2013-05-06 11:40:00,
2013-05-06 06:45:00,49.9,48.2,30.06,NW,323,1.0,2.0,94,0.00,,,0.00,Wunderground v.1.15,2013-05-06 11:45:00,
2013-05-06 06:50:00,50.2,48.5,30.06,NW,310,1.0,1.0,94,0.00,,,0.00,Wunderground v.1.15,2013-05-06 11:50:00,
2013-05-06 06:55:00,50.6,48.7,30.06,NW,306,1.0,1.0,93,0.00,,,0.00,Wunderground v.1.15,2013-05-06 11:55:00,
2013-05-06 07:00:00,51.0,49.0,30.06,West,269,1.0,1.0,93,0.00,,,0.00,Wunderground v.1.15,2013-05-06 12:00:00,
2013-05-06 07:10:00,51.8,49.0,30.06,NW,305,1.0,1.0,90,0.00,,,0.00,Wunderground v.1.15,2013-05-06 12:10:00,
2013-05-06 07:15:00,52.2,49.1,30.06,West,264,1.0,2.0,89,0.00,,,0.00,Wunderground v.1.15,2013-05-06 12:15:00,
2013-05-06 07:20:00,52.6,49.1,30.06,West,260,1.0,2.0,88,0.00,,,0.00,Wunderground v.1.15,2013-05-06 12:20:00,
2013-05-06 07:25:00,53.0,49.5,30.07,NW,308,1.0,2.0,88,0.00,,,0.00,Wunderground v.1.15,2013-05-06 12:25:00,
2013-05-06 07:30:00,53.3,49.5,30.06,WSW,257,1.0,3.0,87,0.00,,,0.00,Wunderground v.1.15,2013-05-06 12:30:00,
2013-05-06 07:40:00,54.1,49.7,30.07,WSW,256,1.0,1.0,85,0.00,,,0.00,Wunderground v.1.15,2013-05-06 12:40:00,
2013-05-06 07:45:00,54.7,50.0,30.07,West,269,1.0,1.0,84,0.00,,,0.00,Wunderground v.1.15,2013-05-06 12:45:00,
2013-05-06 07:50:00,55.3,49.9,30.07,NW,307,2.0,2.0,82,0.00,,,0.00,Wunderground v.1.15,2013-05-06 12:50:00,
2013-05-06 07:55:00,56.0,49.9,30.07,West,273,2.0,2.0,80,0.00,,,0.00,Wunderground v.1.15,2013-05-06 12:55:00,
2013-05-06 08:00:00,56.7,50.3,30.07,NW,324,2.0,3.0,79,0.00,,,0.00,Wunderground v.1.15,2013-05-06 13:00:00,
2013-05-06 08:05:00,57.4,49.9,30.07,West,262,2.0,4.0,76,0.00,,,0.00,Wunderground v.1.15,2013-05-06 13:05:00,
2013-05-06 08:15:00,58.3,49.7,30.07,West,276,3.0,4.0,73,0.00,,,0.00,Wunderground v.1.15,2013-05-06 13:15:00,
2013-05-06 08:20:00,58.8,50.2,30.07,WSW,240,2.0,3.0,73,0.00,,,0.00,Wunderground v.1.15,2013-05-06 13:20:00,
2013-05-06 08:25:00,59.3,49.9,30.07,WNW,289,3.0,4.0,71,0.00,,,0.00,Wunderground v.1.15,2013-05-06 13:25:00,
2013-05-06 08:30:00,59.8,50.4,30.07,WSW,244,3.0,3.0,71,0.00,,,0.00,Wunderground v.1.15,2013-05-06 13:30:00,
2013-05-06 08:35:00,60.1,49.1,30.07,WSW,247,3.0,3.0,67,0.00,,,0.00,Wunderground v.1.15,2013-05-06 13:35:00,
2013-05-06 08:45:00,60.8,50.2,30.07,West,261,4.0,4.0,68,0.00,,,0.00,Wunderground v.1.15,2013-05-06 13:45:00,
2013-05-06 08:50:00,61.3,50.2,30.08,West,259,3.0,4.0,67,0.00,,,0.00,Wunderground v.1.15,2013-05-06 13:50:00,
2013-05-06 08:55:00,61.5,49.2,30.08,WNW,290,3.0,4.0,64,0.00,,,0.00,Wunderground v.1.15,2013-05-06 13:55:00,
2013-05-06 09:00:00,61.8,49.9,30.08,WNW,288,4.0,4.0,65,0.00,,,0.00,Wunderground v.1.15,2013-05-06 14:00:00,
2013-05-06 09:05:00,62.3,49.1,30.08,West,268,3.0,4.0,62,0.00,,,0.00,Wunderground v.1.15,2013-05-06 14:05:00,
2013-05-06 09:10:00,62.8,50.0,30.08,NW,313,3.0,3.0,63,0.00,,,0.00,Wunderground v.1.15,2013-05-06 14:10:00,
2013-05-06 09:20:00,63.8,49.6,30.08,NW,319,3.0,3.0,60,0.00,,,0.00,Wunderground v.1.15,2013-05-06 14:20:00,
2013-05-06 09:25:00,63.8,48.7,30.08,WNW,288,3.0,3.0,58,0.00,,,0.00,Wunderground v.1.15,2013-05-06 14:25:00,
2013-05-06 09:30:00,63.8,48.3,30.08,West,274,4.0,4.0,57,0.00,,,0.00,Wunderground v.1.15,2013-05-06 14:30:00,
2013-05-06 09:35:00,64.3,49.7,30.07,West,266,4.0,4.0,59,0.00,,,0.00,Wunderground v.1.15,2013-05-06 14:35:00,
2013-05-06 09:40:00,64.7,49.6,30.07,NW,307,4.0,6.0,58,0.00,,,0.00,Wunderground v.1.15,2013-05-06 14:40:00,
2013-05-06 09:45:00,65.1,49.5,30.07,West,277,4.0,6.0,57,0.00,,,0.00,Wunderground v.1.15,2013-05-06 14:45:00,
2013-05-06 09:50:00,64.8,48.2,30.07,WSW,242,5.0,5.0,55,0.00,,,0.00,Wunderground v.1.15,2013-05-06 14:50:00,
2013-05-06 09:55:00,65.4,50.2,30.07,SW,236,4.0,5.0,58,0.00,,,0.00,Wunderground v.1.15,2013-05-06 14:55:00,
2013-05-06 10:00:00,65.6,49.5,30.07,WSW,258,4.0,7.0,56,0.00,,,0.00,Wunderground v.1.15,2013-05-06 15:00:00,
2013-05-06 10:05:00,65.5,48.4,30.07,NW,314,5.0,7.0,54,0.00,,,0.00,Wunderground v.1.15,2013-05-06 15:05:00,
2013-05-06 10:10:00,65.7,48.6,30.07,WSW,251,5.0,5.0,54,0.00,,,0.00,Wunderground v.1.15,2013-05-06 15:10:00,
2013-05-06 10:20:00,67.4,49.7,30.07,SSW,211,4.0,4.0,53,0.00,,,0.00,Wunderground v.1.15,2013-05-06 15:20:00,
2013-05-06 10:25:00,67.8,48.5,30.07,WNW,297,4.0,4.0,50,0.00,,,0.00,Wunderground v.1.15,2013-05-06 15:25:00,
2013-05-06 10:30:00,67.0,47.7,30.07,WSW,254,5.0,7.0,50,0.00,,,0.00,Wunderground v.1.15,2013-05-06 15:30:00,
2013-05-06 10:35:00,66.7,48.0,30.07,WSW,254,7.0,8.0,51,0.00,,,0.00,Wunderground v.1.15,2013-05-06 15:35:00,
2013-05-06 10:40:00,67.1,48.4,30.07,West,269,6.0,6.0,51,0.00,,,0.00,Wunderground v.1.15,2013-05-06 15:40:00,
2013-05-06 10:45:00,67.4,48.6,30.07,West,265,5.0,6.0,51,0.00,,,0.00,Wunderground v.1.15,2013-05-06 15:45:00,
2013-05-06 10:55:00,67.7,49.4,30.07,NNW,327,6.0,7.0,52,0.00,,,0.00,Wunderground v.1.15,2013-05-06 15:55:00,
2013-05-06 11:00:00,68.5,48.0,30.07,West,269,5.0,5.0,48,0.00,,,0.00,Wunderground v.1.15,2013-05-06 16:00:00,
2013-05-06 11:05:00,68.5,47.5,30.07,NW,305,5.0,5.0,47,0.00,,,0.00,Wunderground v.1.15,2013-05-06 16:05:00,
2013-05-06 11:10:00,68.9,48.4,30.07,NW,309,5.0,5.0,48,0.00,,,0.00,Wunderground v.1.15,2013-05-06 16:10:00,
2013-05-06 11:15:00,69.6,50.1,30.07,WNW,294,4.0,5.0,50,0.00,,,0.00,Wunderground v.1.15,2013-05-06 16:15:00,
2013-05-06 11:25:00,68.9,48.4,30.06,NW,318,5.0,9.0,48,0.00,,,0.00,Wunderground v.1.15,2013-05-06 16:25:00,
2013-05-06 11:30:00,69.0,49.0,30.06,WNW,295,6.0,6.0,49,0.00,,,0.00,Wunderground v.1.15,2013-05-06 16:30:00,
2013-05-06 11:35:00,69.0,48.5,30.06,WNW,303,6.0,6.0,48,0.00,,,0.00,Wunderground v.1.15,2013-05-06 16:35:00,
2013-05-06 11:40:00,69.2,48.7,30.06,NNW,330,6.0,6.0,48,0.00,,,0.00,Wunderground v.1.15,2013-05-06 16:40:00,
2013-05-06 11:45:00,69.3,48.8,30.06,NW,306,6.0,6.0,48,0.00,,,0.00,Wunderground v.1.15,2013-05-06 16:45:00,
2013-05-06 11:50:00,69.4,49.9,30.05,WNW,282,5.0,5.0,50,0.00,,,0.00,Wunderground v.1.15,2013-05-06 16:50:00,
2013-05-06 12:00:00,69.8,49.8,30.05,NNW,345,5.0,7.0,49,0.00,,,0.00,Wunderground v.1.15,2013-05-06 17:00:00,
2013-05-06 12:05:00,70.3,50.8,30.05,WNW,285,5.0,7.0,50,0.00,,,0.00,Wunderground v.1.15,2013-05-06 17:05:00,
2013-05-06 12:10:00,70.5,49.9,30.05,WNW,293,5.0,6.0,48,0.00,,,0.00,Wunderground v.1.15,2013-05-06 17:10:00,
2013-05-06 12:15:00,69.8,50.3,30.05,WNW,297,6.0,6.0,50,0.00,,,0.00,Wunderground v.1.15,2013-05-06 17:15:00,
2013-05-06 12:20:00,70.2,52.3,30.05,NW,311,5.0,5.0,53,0.00,,,0.00,Wunderground v.1.15,2013-05-06 17:20:00,
2013-05-06 12:30:00,70.9,50.8,30.04,West,280,5.0,5.0,49,0.00,,,0.00,Wunderground v.1.15,2013-05-06 17:30:00,
2013-05-06 12:35:00,71.6,50.9,30.04,WSW,244,5.0,5.0,48,0.00,,,0.00,Wunderground v.1.15,2013-05-06 17:35:00,
2013-05-06 12:40:00,71.2,51.1,30.04,West,262,5.0,6.0,49,0.00,,,0.00,Wunderground v.1.15,2013-05-06 17:40:00,
2013-05-06 12:45:00,71.1,51.5,30.04,WNW,285,5.0,6.0,50,0.00,,,0.00,Wunderground v.1.15,2013-05-06 17:45:00,
2013-05-06 12:50:00,71.6,52.5,30.04,WSW,249,4.0,7.0,51,0.00,,,0.00,Wunderground v.1.15,2013-05-06 17:50:00,
2013-05-06 12:55:00,71.5,50.2,30.04,NW,307,5.0,7.0,47,0.00,,,0.00,Wunderground v.1.15,2013-05-06 17:55:00,
2013-05-06 13:05:00,71.7,53.1,30.03,NW,312,6.0,6.0,52,0.00,,,0.00,Wunderground v.1.15,2013-05-06 18:05:00,
2013-05-06 13:10:00,72.3,51.5,30.03,NW,304,4.0,5.0,48,0.00,,,0.00,Wunderground v.1.15,2013-05-06 18:10:00,
2013-05-06 13:15:00,72.5,53.3,30.03,WSW,248,4.0,7.0,51,0.00,,,0.00,Wunderground v.1.15,2013-05-06 18:15:00,
2013-05-06 13:20:00,72.4,52.2,30.03,West,275,5.0,5.0,49,0.00,,,0.00,Wunderground v.1.15,2013-05-06 18:20:00,
2013-05-06 13:25:00,73.0,51.6,30.03,WNW,288,5.0,5.0,47,0.00,,,0.00,Wunderground v.1.15,2013-05-06 18:25:00,
2013-05-06 13:35:00,72.9,52.1,30.02,NW,314,4.0,7.0,48,0.00,,,0.00,Wunderground v.1.15,2013-05-06 18:35:00,
2013-05-06 13:40:00,73.3,52.4,30.02,WNW,296,5.0,7.0,48,0.00,,,0.00,Wunderground v.1.15,2013-05-06 18:40:00,
2013-05-06 13:45:00,73.0,51.0,30.02,WSW,240,5.0,8.0,46,0.00,,,0.00,Wunderground v.1.15,2013-05-06 18:45:00,
2013-05-06 13:50:00,73.5,53.7,30.02,WNW,300,5.0,9.0,50,0.00,,,0.00,Wunderground v.1.15,2013-05-06 18:50:00,
2013-05-06 13:55:00,73.2,51.8,30.02,West,278,6.0,9.0,47,0.00,,,0.00,Wunderground v.1.15,2013-05-06 18:55:00,
2013-05-06 14:00:00,73.4,51.9,30.02,NNW,345,6.0,6.0,47,0.00,,,0.00,Wunderground v.1.15,2013-05-06 19:00:00,
2013-05-06 14:10:00,73.3,51.8,30.01,WSW,245,6.0,6.0,47,0.00,,,0.00,Wunderground v.1.15,2013-05-06 19:10:00,
2013-05-06 14:15:00,74.0,53.1,30.01,WSW,256,5.0,6.0,48,0.00,,,0.00,Wunderground v.1.15,2013-05-06 19:15:00,
2013-05-06 14:20:00,74.0,51.9,30.01,West,275,5.0,5.0,46,0.00,,,0.00,Wunderground v.1.15,2013-05-06 19:20:00,
2013-05-06 14:25:00,74.2,53.2,30.01,West,263,5.0,8.0,48,0.00,,,0.00,Wunderground v.1.15,2013-05-06 19:25:00,
2013-05-06 14:30:00,74.7,51.9,30.01,West,280,5.0,5.0,45,0.00,,,0.00,Wunderground v.1.15,2013-05-06 19:30:00,
2013-05-06 14:35:00,73.7,52.8,30.00,WSW,253,7.0,7.0,48,0.00,,,0.00,Wunderground v.1.15,2013-05-06 19:35:00,
2013-05-06 14:40:00,74.2,52.1,30.00,SW,235,7.0,7.0,46,0.00,,,0.00,Wunderground v.1.15,2013-05-06 19:40:00,
2013-05-06 14:45:00,74.0,51.9,30.00,West,278,7.0,9.0,46,0.00,,,0.00,Wunderground v.1.15,2013-05-06 19:45:00,
2013-05-06 14:50:00,74.8,51.4,30.00,WSW,250,7.0,7.0,44,0.00,,,0.00,Wunderground v.1.15,2013-05-06 19:50:00,
2013-05-06 14:55:00,74.5,52.9,29.99,SW,222,5.0,7.0,47,0.00,,,0.00,Wunderground v.1.15,2013-05-06 19:55:00,
2013-05-06 15:00:00,74.9,52.7,29.99,NW,304,5.0,5.0,46,0.00,,,0.00,Wunderground v.1.15,2013-05-06 20:00:00,
2013-05-06 15:10:00,75.4,53.2,29.99,West,274,5.0,10.0,46,0.00,,,0.00,Wunderground v.1.15,2013-05-06 20:10:00,
2013-05-06 15:15:00,75.4,52.0,29.99,WSW,257,6.0,10.0,44,0.00,,,0.00,Wunderground v.1.15,2013-05-06 20:15:00,
2013-05-06 15:20:00,75.5,52.7,29.99,WNW,300,6.0,6.0,45,0.00,,,0.00,Wunderground v.1.15,2013-05-06 20:20:00,
2013-05-06 15:25:00,75.9,53.0,29.98,NW,318,5.0,6.0,45,0.00,,,0.00,Wunderground v.1.15,2013-05-06 20:25:00,
2013-05-06 15:30:00,76.1,53.2,29.98,WNW,292,5.0,5.0,45,0.00,,,0.00,Wunderground v.1.15,2013-05-06 20:30:00,
2013-05-06 15:35:00,76.4,52.9,29.98,WNW,288,4.0,5.0,44,0.00,,,0.00,Wunderground v.1.15,2013-05-06 20:35:00,
2013-05-06 15:45:00,76.0,51.9,29.97,WNW,290,7.0,7.0,43,0.00,,,0.00,Wunderground v.1.15,2013-05-06 20:45:00,
2013-05-06 15:50:00,76.2,52.7,29.97,NNW,345,7.0,7.0,44,0.00,,,0.00,Wunderground v.1.15,2013-05-06 20:50:00,
2013-05-06 15:55:00,76.7,53.8,29.97,West,265,5.0,7.0,45,0.00,,,0.00,Wunderground v.1.15,2013-05-06 20:55:00,
2013-05-06 16:00:00,76.5,51.7,29.97,WNW,287,5.0,5.0,42,0.00,,,0.00,Wunderground v.1.15,2013-05-06 21:00:00,
2013-05-06 16:05:00,75.9,53.0,29.96,NNW,333,6.0,6.0,45,0.00,,,0.00,Wunderground v.1.15,2013-05-06 21:05:00,
2013-05-06 16:15:00,76.2,53.9,29.96,WNW,293,5.0,8.0,46,0.00,,,0.00,Wunderground v.1.15,2013-05-06 21:15:00,
2013-05-06 16:20:00,76.8,53.2,29.96,NW,317,4.0,4.0,44,0.00,,,0.00,Wunderground v.1.15,2013-05-06 21:20:00,
2013-05-06 16:25:00,76.4,53.5,29.96,NW,321,5.0,7.0,45,0.00,,,0.00,Wunderground v.1.15,2013-05-06 21:25:00,
2013-05-06 16:30:00,76.5,53.6,29.95,WNW,293,5.0,5.0,45,0.00,,,0.00,Wunderground v.1.15,2013-05-06 21:30:00,
2013-05-06 16:35:00,77.2,53.6,29.95,NNW,336,5.0,5.0,44,0.00,,,0.00,Wunderground v.1.15,2013-05-06 21:35:00,
2013-05-06 16:40:00,77.0,53.4,29.95,North,2,4.0,4.0,44,0.00,,,0.00,Wunderground v.1.15,2013-05-06 21:40:00,
2013-05-06 16:50:00,77.3,53.7,29.95,NW,306,4.0,5.0,44,0.00,,,0.00,Wunderground v.1.15,2013-05-06 21:50:00,
2013-05-06 16:55:00,77.4,53.1,29.95,NW,308,4.0,5.0,43,0.00,,,0.00,Wunderground v.1.15,2013-05-06 21:55:00,
2013-05-06 17:00:00,76.8,52.6,29.95,West,281,5.0,6.0,43,0.00,,,0.00,Wunderground v.1.15,2013-05-06 22:00:00,
2013-05-06 17:05:00,76.7,53.8,29.95,WNW,300,6.0,6.0,45,0.00,,,0.00,Wunderground v.1.15,2013-05-06 22:05:00,
2013-05-06 17:10:00,76.7,53.8,29.94,NNW,345,5.0,7.0,45,0.00,,,0.00,Wunderground v.1.15,2013-05-06 22:10:00,
2013-05-06 17:20:00,76.4,52.9,29.94,WSW,252,3.0,3.0,44,0.00,,,0.00,Wunderground v.1.15,2013-05-06 22:20:00,
2013-05-06 17:25:00,76.5,53.6,29.95,NW,314,3.0,7.0,45,0.00,,,0.00,Wunderground v.1.15,2013-05-06 22:25:00,
2013-05-06 17:30:00,75.9,53.6,29.94,NW,309,4.0,7.0,46,0.00,,,0.00,Wunderground v.1.15,2013-05-06 22:30:00,
2013-05-06 17:35:00,75.6,53.9,29.94,WNW,303,4.0,7.0,47,0.00,,,0.00,Wunderground v.1.15,2013-05-06 22:35:00,
2013-05-06 17:40:00,75.6,53.9,29.94,NW,305,4.0,4.0,47,0.00,,,0.00,Wunderground v.1.15,2013-05-06 22:40:00,
2013-05-06 17:45:00,76.4,54.1,29.94,WNW,286,3.0,4.0,46,0.00,,,0.00,Wunderground v.1.15,2013-05-06 22:45:00,
2013-05-06 17:55:00,76.8,53.2,29.94,West,266,3.0,6.0,44,0.00,,,0.00,Wunderground v.1.15,2013-05-06 22:55:00,
2013-05-06 18:00:00,76.2,53.3,29.94,WNW,292,4.0,6.0,45,0.00,,,0.00,Wunderground v.1.15,2013-05-06 23:00:00,
2013-05-06 18:05:00,75.9,54.2,29.94,West,281,4.0,6.0,47,0.00,,,0.00,Wunderground v.1.15,2013-05-06 23:05:00,
2013-05-06 18:10:00,75.8,54.1,29.94,West,270,3.0,4.0,47,0.00,,,0.00,Wunderground v.1.15,2013-05-06 23:10:00,
2013-05-06 18:15:00,75.8,53.5,29.95,WNW,303,3.0,4.0,46,0.00,,,0.00,Wunderground v.1.15,2013-05-06 23:15:00,
2013-05-06 18:20:00,75.5,53.3,29.95,WSW,252,3.0,4.0,46,0.00,,,0.00,Wunderground v.1.15,2013-05-06 23:20:00,
2013-05-06 18:25:00,75.5,54.4,29.95,West,266,2.0,4.0,48,0.00,,,0.00,Wunderground v.1.15,2013-05-06 23:25:00,
2013-05-06 18:30:00,75.8,54.7,29.95,West,263,2.0,4.0,48,0.00,,,0.00,Wunderground v.1.15,2013-05-06 23:30:00,
2013-05-06 18:35:00,75.8,54.7,29.95,WNW,288,2.0,4.0,48,0.00,,,0.00,Wunderground v.1.15,2013-05-06 23:35:00,
2013-05-06 18:40:00,75.4,54.9,29.95,WSW,254,2.0,3.0,49,0.00,,,0.00,Wunderground v.1.15,2013-05-06 23:40:00,
2013-05-06 18:45:00,75.1,54.6,29.95,West,268,2.0,3.0,49,0.00,,,0.00,Wunderground v.1.15,2013-05-06 23:45:00,
2013-05-06 18:55:00,74.6,54.7,29.95,WNW,290,3.0,3.0,50,0.00,,,0.00,Wunderground v.1.15,2013-05-06 23:55:00,
2013-05-06 19:00:00,74.5,55.2,29.95,West,276,2.0,2.0,51,0.00,,,0.00,Wunderground v.1.15,2013-05-07 00:00:00,
2013-05-06 19:05:00,74.3,55.0,29.95,West,268,2.0,2.0,51,0.00,,,0.00,Wunderground v.1.15,2013-05-07 00:05:00,
2013-05-06 19:10:00,74.1,54.8,29.95,West,276,2.0,2.0,51,0.00,,,0.00,Wunderground v.1.15,2013-05-07 00:10:00,
2013-05-06 19:15:00,73.8,55.6,29.95,WNW,299,2.0,2.0,53,0.00,,,0.00,Wunderground v.1.15,2013-05-07 00:15:00,
2013-05-06 19:20:00,73.5,55.3,29.95,NW,306,1.0,2.0,53,0.00,,,0.00,Wunderground v.1.15,2013-05-07 00:20:00,
2013-05-06 19:30:00,72.8,55.7,29.96,WNW,288,1.0,2.0,55,0.00,,,0.00,Wunderground v.1.15,2013-05-07 00:30:00,
2013-05-06 19:35:00,72.4,55.8,29.96,NW,305,1.0,2.0,56,0.00,,,0.00,Wunderground v.1.15,2013-05-07 00:35:00,
2013-05-06 19:40:00,71.9,55.8,29.96,NW,306,1.0,1.0,57,0.00,,,0.00,Wunderground v.1.15,2013-05-07 00:40:00,
2013-05-06 19:45:00,71.6,55.6,29.96,WNW,288,1.0,1.0,57,0.00,,,0.00,Wunderground v.1.15,2013-05-07 00:45:00,
2013-05-06 19:50:00,71.4,55.4,29.96,WNW,285,0.0,1.0,57,0.00,,,0.00,Wunderground v.1.15,2013-05-07 00:50:00,
2013-05-06 20:00:00,70.8,56.2,29.97,WNW,284,1.0,1.0,60,0.00,,,0.00,Wunderground v.1.15,2013-05-07 01:00:00,
2013-05-06 20:05:00,70.4,55.8,29.97,WNW,284,1.0,1.0,60,0.00,,,0.00,Wunderground v.1.15,2013-05-07 01:05:00,
2013-05-06 20:10:00,70.2,56.1,29.97,WNW,284,0.0,1.0,61,0.00,,,0.00,Wunderground v.1.15,2013-05-07 01:10:00,
2013-05-06 20:15:00,70.0,55.9,29.97,WNW,284,0.0,1.0,61,0.00,,,0.00,Wunderground v.1.15,2013-05-07 01:15:00,
2013-05-06 20:20:00,69.8,56.2,29.97,WNW,284,0.0,1.0,62,0.00,,,0.00,Wunderground v.1.15,2013-05-07 01:20:00,
2013-05-06 20:25:00,69.5,58.9,29.97,WNW,284,0.0,1.0,69,0.00,,,0.00,Wunderground v.1.15,2013-05-07 01:25:00,
2013-05-06 20:35:00,67.5,58.9,29.97,WNW,285,0.0,1.0,74,0.00,,,0.00,Wunderground v.1.15,2013-05-07 01:35:00,
2013-05-06 20:40:00,66.6,57.7,29.98,WNW,285,0.0,1.0,73,0.00,,,0.00,Wunderground v.1.15,2013-05-07 01:40:00,
2013-05-06 20:45:00,66.1,56.8,29.98,WNW,284,0.0,1.0,72,0.00,,,0.00,Wunderground v.1.15,2013-05-07 01:45:00,
2013-05-06 20:50:00,65.6,57.5,29.98,WNW,284,0.0,1.0,75,0.00,,,0.00,Wunderground v.1.15,2013-05-07 01:50:00,
2013-05-06 20:55:00,65.5,57.0,29.98,WNW,285,0.0,1.0,74,0.00,,,0.00,Wunderground v.1.15,2013-05-07 01:55:00,
2013-05-06 21:05:00,65.6,59.6,29.99,WNW,285,0.0,1.0,81,0.00,,,0.00,Wunderground v.1.15,2013-05-07 02:05:00,
2013-05-06 21:10:00,65.1,59.8,29.99,West,264,0.0,1.0,83,0.00,,,0.00,Wunderground v.1.15,2013-05-07 02:10:00,
2013-05-06 21:15:00,64.2,58.9,29.99,West,264,0.0,1.0,83,0.00,,,0.00,Wunderground v.1.15,2013-05-07 02:15:00,
2013-05-06 21:20:00,64.2,58.2,29.99,West,264,0.0,1.0,81,0.00,,,0.00,Wunderground v.1.15,2013-05-07 02:20:00,
2013-05-06 21:25:00,64.6,58.6,29.99,West,264,0.0,1.0,81,0.00,,,0.00,Wunderground v.1.15,2013-05-07 02:25:00,
2013-05-06 21:30:00,64.4,58.1,29.99,West,264,0.0,1.0,80,0.00,,,0.00,Wunderground v.1.15,2013-05-07 02:30:00,
2013-05-06 21:40:00,64.7,57.3,30.00,WSW,257,0.0,1.0,77,0.00,,,0.00,Wunderground v.1.15,2013-05-07 02:40:00,
2013-05-06 21:45:00,64.9,57.2,30.00,WSW,242,1.0,1.0,76,0.00,,,0.00,Wunderground v.1.15,2013-05-07 02:45:00,
2013-05-06 21:50:00,64.7,56.6,30.00,WSW,242,1.0,1.0,75,0.00,,,0.00,Wunderground v.1.15,2013-05-07 02:50:00,
2013-05-06 21:55:00,64.3,57.6,30.00,WSW,242,0.0,1.0,79,0.00,,,0.00,Wunderground v.1.15,2013-05-07 02:55:00,
2013-05-06 22:00:00,63.8,57.5,30.00,WSW,242,0.0,1.0,80,0.00,,,0.00,Wunderground v.1.15,2013-05-07 03:00:00,
2013-05-06 22:05:00,63.2,56.9,30.00,WSW,242,0.0,1.0,80,0.00,,,0.00,Wunderground v.1.15,2013-05-07 03:05:00,
2013-05-06 22:10:00,62.8,56.2,30.00,WSW,242,0.0,1.0,79,0.00,,,0.00,Wunderground v.1.15,2013-05-07 03:10:00,
2013-05-06 22:15:00,62.7,56.4,30.00,WSW,242,0.0,1.0,80,0.00,,,0.00,Wunderground v.1.15,2013-05-07 03:15:00,
2013-05-06 22:20:00,63.1,56.5,30.00,WSW,242,0.0,1.0,79,0.00,,,0.00,Wunderground v.1.15,2013-05-07 03:20:00,
2013-05-06 22:25:00,63.3,57.0,30.00,WSW,243,0.0,1.0,80,0.00,,,0.00,Wunderground v.1.15,2013-05-07 03:25:00,
2013-05-06 22:35:00,62.9,56.6,30.00,WSW,244,0.0,1.0,80,0.00,,,0.00,Wunderground v.1.15,2013-05-07 03:35:00,
2013-05-06 22:40:00,62.7,58.5,30.00,WSW,243,0.0,1.0,86,0.00,,,0.00,Wunderground v.1.15,2013-05-07 03:40:00,
2013-05-06 22:45:00,62.1,58.2,30.00,SSW,196,1.0,1.0,87,0.00,,,0.00,Wunderground v.1.15,2013-05-07 03:45:00,
2013-05-06 22:50:00,61.4,57.2,30.01,SSW,196,1.0,1.0,86,0.00,,,0.00,Wunderground v.1.15,2013-05-07 03:50:00,
2013-05-06 22:55:00,61.0,56.8,30.00,SSW,196,0.0,1.0,86,0.00,,,0.00,Wunderground v.1.15,2013-05-07 03:55:00,
2013-05-06 23:00:00,61.1,56.9,30.01,SSE,151,0.0,1.0,86,0.00,,,0.00,Wunderground v.1.15,2013-05-07 04:00:00,
2013-05-06 23:05:00,60.8,56.9,30.01,SSE,151,1.0,1.0,87,0.00,,,0.00,Wunderground v.1.15,2013-05-07 04:05:00,
2013-05-06 23:10:00,60.9,56.4,30.01,WSW,239,1.0,2.0,85,0.00,,,0.00,Wunderground v.1.15,2013-05-07 04:10:00,
2013-05-06 23:15:00,61.5,56.6,30.01,WSW,257,2.0,2.0,84,0.00,,,0.00,Wunderground v.1.15,2013-05-07 04:15:00,
2013-05-06 23:20:00,62.0,56.8,30.01,SW,233,1.0,2.0,83,0.00,,,0.00,Wunderground v.1.15,2013-05-07 04:20:00,
2013-05-06 23:25:00,62.3,57.1,30.01,WSW,257,2.0,2.0,83,0.00,,,0.00,Wunderground v.1.15,2013-05-07 04:25:00,
2013-05-06 23:30:00,62.4,57.2,30.01,WSW,245,2.0,2.0,83,0.00,,,0.00,Wunderground v.1.15,2013-05-07 04:30:00,
2013-05-06 23:35:00,62.2,57.0,30.00,WSW,245,1.0,2.0,83,0.00,,,0.00,Wunderground v.1.15,2013-05-07 04:35:00,
2013-05-06 23:45:00,61.4,56.8,30.00,WSW,245,0.0,1.0,85,0.00,,,0.00,Wunderground v.1.15,2013-05-07 04:45:00,
2013-05-06 23:50:00,61.2,57.0,30.00,WSW,245,0.0,1.0,86,0.00,,,0.00,Wunderground v.1.15,2013-05-07 04:50:00,
2013-05-06 23:55:00,61.1,57.2,30.00,WSW,245,0.0,1.0,87,0.00,,,0.00,Wunderground v.1.15,2013-05-07 04:55:00,